Retour au catalogue

STARLINK-31514

ActifCommunicationsVLEO
NORAD 59187·PAYLOAD·🇺🇸 United States

Lancé Mar 10, 2024 depuis Cape Canaveral Space Force Station

Loading…

Prochains Passages (prochaines 24 heures)

TLE

FraisSource: CelesTrak SupGP

Époque: Sep 15, 2026, 02:18 UTC

1 59187C 24045K   26258.09631944  .00043822  00000+0  15871-2 0  2584
2 59187  42.9994 102.9656 0001389 270.0171 234.7902 15.27560092    12

Suivez STARLINK-31514 en temps réel avec AllMySat

Download on the App Store